EW9274 Weather Reports


Display with metric or nautical units.
time (UTC)temp
F
wind
direction
speed
MPH
gust
MPH
rain 1hr
in
rain 24hr
in
rain mn
in
humidity
%
barometer
mb
20260510101509 37 218 0.0 2.0 0.00 0.00 0.00 80 1016.8
20260510101006 37 218 0.0 2.0 0.00 0.00 0.00 80 1016.8
20260510100508 37 218 0.0 2.0 0.00 0.00 0.00 80 1016.7
20260510100016 37 218 0.0 2.0 0.00 0.00 0.00 80 1016.6
20260510095507 37 218 0.0 2.0 0.00 0.00 0.00 79 1016.4
20260510095007 37 218 0.0 2.0 0.00 0.00 0.00 79 1016.3
20260510094537 37 218 0.0 2.0 0.00 0.00 0.00 79 1016.4
20260510094007 37 218 1.0 2.0 0.00 0.00 0.00 78 1016.3
20260510093510 38 218 1.0 2.0 0.00 0.00 0.00 78 1016.2
20260510093014 38 218 1.0 2.0 0.00 0.00 0.00 77 1016.3
20260510092507 38 306 0.0 0.0 0.00 0.00 0.00 76 1016.0
20260510092012 38 306 0.0 0.0 0.00 0.00 0.00 76 1015.9
20260510091521 38 306 0.0 0.0 0.00 0.00 0.00 76 1015.9
20260510091008 38 306 0.0 0.0 0.00 0.00 0.00 75 1015.9
20260510090508 38 306 0.0 0.0 0.00 0.00 0.00 74 1015.9
20260510090018 39 306 0.0 0.0 0.00 0.00 0.00 74 1015.9
20260510085508 39 306 0.0 0.0 0.00 0.00 0.00 73 1015.8
20260510085004 39 306 0.0 0.0 0.00 0.00 0.00 73 1015.7
20260510084521 40 306 0.0 0.0 0.00 0.00 0.00 73 1015.7
20260510084009 40 306 0.0 0.0 0.00 0.00 0.00 72 1015.6
20260510083501 40 306 0.0 0.0 0.00 0.00 0.00 72 1015.6
20260510083020 40 306 0.0 0.0 0.00 0.00 0.00 71 1015.5
20260510082509 40 306 0.0 2.0 0.00 0.00 0.00 71 1015.5
20260510082003 41 306 0.0 2.0 0.00 0.00 0.00 70 1015.5
20260510081524 41 306 0.0 2.0 0.00 0.00 0.00 69 1015.3
20260510081008 41 306 0.0 2.0 0.00 0.00 0.00 70 1015.3
20260510080502 41 306 0.0 2.0 0.00 0.00 0.00 69 1015.2
20260510080023 41 306 0.0 2.0 0.00 0.00 0.00 68 1015.2
20260510075507 42 306 0.0 2.0 0.00 0.00 0.00 66 1015.1
20260510075012 43 35 0.0 2.0 0.00 0.00 0.00 65 1015.0
20260510074524 43 35 0.0 2.0 0.00 0.00 0.00 64 1014.8
20260510074010 43 62 0.0 2.0 0.00 0.00 0.00 64 1014.6
20260510073505 43 62 0.0 2.0 0.00 0.00 0.00 64 1014.5
20260510073030 43 62 0.0 2.0 0.00 0.00 0.00 63 1014.6
20260510072509 43 60 0.0 3.0 0.00 0.00 0.00 63 1014.5
20260510072003 43 59 0.0 3.0 0.00 0.00 0.00 63 1014.5
20260510071525 43 88 1.0 3.0 0.00 0.00 0.00 62 1014.4
20260510071006 44 34 1.0 3.0 0.00 0.00 0.00 62 1014.4
20260510070508 44 68 2.0 4.0 0.00 0.00 0.00 62 1014.3
20260510070030 44 79 2.0 4.0 0.00 0.00 0.00 61 1014.3
20260510065507 44 76 2.0 4.0 0.00 0.00 0.00 61 1014.2
20260510065003 44 46 2.0 4.0 0.00 0.00 0.00 61 1014.2
20260510064524 44 38 1.0 4.0 0.00 0.00 0.00 61 1014.2
20260510064006 44 44 2.0 6.0 0.00 0.00 0.00 60 1014.2
20260510063506 44 76 2.0 6.0 0.00 0.00 0.00 60 1014.2
20260510063028 44 68 1.0 4.0 0.00 0.00 0.00 60 1014.1
20260510062510 44 76 2.0 4.0 0.00 0.00 0.00 59 1014.0
20260510062007 45 51 2.0 4.0 0.00 0.00 0.00 59 1013.9
20260510061528 45 72 3.0 4.0 0.00 0.00 0.00 60 1013.8
20260510061012 45 47 2.0 4.0 0.00 0.00 0.00 59 1013.8
20260510060510 45 67 2.0 5.0 0.00 0.00 0.00 59 1013.7
20260510060027 45 78 2.0 6.0 0.00 0.00 0.00 59 1013.7
20260510055506 45 98 4.0 6.0 0.00 0.00 0.00 58 1013.7
20260510055006 45 55 3.0 5.0 0.00 0.00 0.00 58 1013.6
20260510054529 45 88 2.0 5.0 0.00 0.00 0.00 58 1013.6
20260510054011 45 82 3.0 7.0 0.00 0.00 0.00 58 1013.6
20260510053510 45 65 2.0 8.0 0.00 0.00 0.00 57 1013.5
20260510053048 46 74 3.0 10.0 0.00 0.00 0.00 57 1013.5
20260510052509 46 57 5.0 10.0 0.00 0.00 0.00 57 1013.4
20260510052012 46 74 5.0 10.0 0.00 0.00 0.00 57 1013.3
20260510051506 46 59 5.0 9.0 0.00 0.00 0.00 56 1013.4
20260510051005 46 87 3.0 10.0 0.00 0.00 0.00 56 1013.3
20260510050502 46 101 6.0 11.0 0.00 0.00 0.00 55 1013.3
20260510050012 46 121 5.0 11.0 0.00 0.00 0.00 55 1013.2
20260510045508 47 48 6.0 13.0 0.00 0.00 0.00 55 1013.2
20260510045003 47 46 7.0 13.0 0.00 0.00 0.00 54 1013.2
20260510044511 47 109 5.0 13.0 0.00 0.00 0.00 53 1013.1
20260510044004 48 81 7.0 12.0 0.00 0.00 0.00 51 1013.0
20260510043504 48 101 5.0 11.0 0.00 0.00 0.00 51 1012.9
20260510043014 48 61 5.0 14.0 0.00 0.00 0.00 49 1012.8
20260510042509 49 82 8.0 14.0 0.00 0.00 0.00 47 1012.7
20260510042003 50 78 8.0 18.0 0.00 0.00 0.00 45 1012.6
20260510041521 51 71 9.0 18.0 0.00 0.00 0.00 43 1012.5
20260510041011 52 63 9.0 15.0 0.00 0.00 0.00 41 1012.3
20260510040502 52 11 5.0 11.0 0.00 0.00 0.00 40 1011.9
20260510040029 52 42 1.0 3.0 0.00 0.00 0.00 39 1011.6
20260510035507 53 273 0.0 3.0 0.00 0.00 0.00 39 1011.5
20260510035003 53 26 1.0 3.0 0.00 0.00 0.00 39 1011.6
20260510034516 53 342 1.0 4.0 0.00 0.00 0.00 39 1011.5
20260510034008 53 40 1.0 4.0 0.00 0.00 0.00 40 1011.5
20260510033504 53 5 1.0 3.0 0.00 0.00 0.00 39 1011.4
20260510033017 53 17 1.0 2.0 0.00 0.00 0.00 39 1011.4
20260510032508 54 360 0.0 2.0 0.00 0.00 0.00 39 1011.3
20260510032004 54 360 1.0 2.0 0.00 0.00 0.00 39 1011.3
20260510031521 54 28 1.0 3.0 0.00 0.00 0.00 39 1011.2
20260510031010 54 344 1.0 3.0 0.00 0.00 0.00 39 1011.2
20260510030505 54 333 0.0 3.0 0.00 0.00 0.00 39 1011.1
20260510030020 55 329 1.0 3.0 0.00 0.00 0.00 39 1011.2
20260510025507 55 5 0.0 3.0 0.00 0.00 0.00 38 1011.0
20260510025003 55 352 1.0 3.0 0.00 0.00 0.00 38 1011.0
20260510024520 55 352 2.0 4.0 0.00 0.00 0.00 38 1010.9
20260510024014 55 328 1.0 4.0 0.00 0.00 0.00 38 1010.8
20260510023503 56 44 1.0 4.0 0.00 0.00 0.00 39 1010.7
20260510023020 56 333 2.0 4.0 0.00 0.00 0.00 39 1010.7
20260510022508 56 51 1.0 5.0 0.00 0.00 0.00 40 1010.6
20260510022004 56 328 2.0 5.0 0.00 0.00 0.00 40 1010.4
20260510021536 56 11 0.0 3.0 0.00 0.00 0.00 40 1010.3
20260510021008 56 37 1.0 3.0 0.00 0.00 0.00 39 1010.2
20260510020504 57 350 1.0 4.0 0.00 0.00 0.00 39 1010.1
20260510020024 57 360 2.0 6.0 0.00 0.00 0.00 39 1010.1
20260510015507 57 336 3.0 6.0 0.00 0.00 0.00 39 1009.9
20260510015006 57 351 2.0 5.0 0.00 0.00 0.00 39 1009.8
20260510014529 57 13 1.0 5.0 0.00 0.00 0.00 39 1009.7
20260510014004 58 224 0.0 5.0 0.00 0.00 0.00 39 1009.7
20260510013504 58 334 3.0 9.0 0.00 0.00 0.00 38 1009.5
20260510013026 58 315 3.0 9.0 0.00 0.00 0.00 38 1009.4
20260510012503 58 343 1.0 4.0 0.00 0.00 0.00 38 1009.2
20260510012006 58 346 2.0 4.0 0.00 0.00 0.00 38 1009.0
20260510011535 59 329 2.0 5.0 0.00 0.00 0.00 37 1008.8
20260510011004 59 347 3.0 5.0 0.00 0.00 0.00 37 1008.7
20260510010504 59 319 2.0 5.0 0.00 0.00 0.00 37 1008.6
20260510010024 59 325 2.0 9.0 0.00 0.00 0.00 37 1008.5
20260510005506 60 21 3.0 9.0 0.00 0.00 0.00 36 1008.5
20260510005008 60 286 1.0 6.0 0.00 0.00 0.00 36 1008.3
20260510004531 60 321 1.0 6.0 0.00 0.00 0.00 36 1008.3
20260510004004 60 352 3.0 6.0 0.00 0.00 0.00 36 1008.2
20260510003511 60 5 3.0 6.0 0.00 0.00 0.00 36 1008.1
20260510003028 61 296 0.0 12.0 0.00 0.00 0.00 36 1008.0
20260510002503 61 336 5.0 12.0 0.00 0.00 0.00 35 1007.9
20260510002009 61 295 6.0 11.0 0.00 0.00 0.00 35 1007.9
20260510001527 61 29 4.0 11.0 0.00 0.00 0.00 35 1007.8
20260510001011 62 295 5.0 11.0 0.00 0.00 0.00 35 1007.7
20260510000507 62 323 3.0 13.0 0.00 0.00 0.00 35 1007.7
20260510000040 62 9 3.0 13.0 0.00 0.00 0.00 35 1007.6
20260509235505 62 316 6.0 12.0 0.00 0.00 0.00 36 1007.6
20260509235011 62 344 6.0 12.0 0.00 0.00 0.00 36 1007.6
20260509234527 62 294 1.0 11.0 0.00 0.00 0.00 36 1007.5
20260509234006 62 286 5.0 11.0 0.00 0.00 0.00 36 1007.4
20260509233508 62 294 7.0 12.0 0.00 0.00 0.00 35 1007.3
20260509233028 62 277 4.0 13.0 0.00 0.00 0.00 36 1007.3
20260509232508 62 306 7.0 13.0 0.00 0.00 0.00 36 1007.3
20260509232011 63 350 4.0 11.0 0.00 0.00 0.00 37 1007.2
20260509231528 63 207 4.0 12.0 0.00 0.00 0.00 37 1007.1
20260509231008 62 327 6.0 13.0 0.00 0.00 0.00 37 1007.1
20260509230510 62 329 3.0 15.0 0.00 0.00 0.00 37 1007.0
20260509230028 63 13 4.0 15.0 0.00 0.00 0.00 36 1007.0
20260509225510 63 318 8.0 14.0 0.00 0.00 0.00 36 1006.9
20260509225014 63 254 6.0 18.0 0.00 0.00 0.00 36 1006.8
20260509224511 64 146 6.0 18.0 0.00 0.00 0.00 36 1006.8
20260509224007 64 352 7.0 16.0 0.00 0.00 0.00 35 1006.6
20260509223517 64 12 7.0 15.0 0.00 0.00 0.00 36 1006.7
20260509223028 65 255 8.0 15.0 0.00 0.00 0.00 35 1006.6
20260509222508 65 241 6.0 15.0 0.00 0.00 0.00 36 1006.5
20260509222014 65 352 3.0 13.0 0.00 0.00 0.00 35 1006.3
20260509221529 64 329 5.0 21.0 0.00 0.00 0.00 35 1006.3
20260509221007 64 317 7.0 21.0 0.00 0.00 0.00 35 1006.3
20260509220514 65 338 4.0 12.0 0.00 0.00 0.00 35 1006.2
20260509220020 65 317 4.0 18.0 0.00 0.00 0.00 35 1006.1
20260509215508 65 322 6.0 18.0 0.00 0.00 0.00 35 1006.0
20260509215014 66 321 5.0 14.0 0.00 0.00 0.00 34 1005.9
20260509214529 66 352 2.0 16.0 0.00 0.00 0.00 34 1005.7
20260509214010 65 175 3.0 18.0 0.00 0.00 0.00 35 1005.7
20260509213510 65 240 9.0 18.0 0.00 0.00 0.00 35 1005.7
20260509213027 65 304 5.0 19.0 0.00 0.00 0.00 34 1005.7
20260509212512 66 281 6.0 19.0 0.00 0.00 0.00 33 1005.6
20260509212015 66 321 3.0 17.0 0.00 0.00 0.00 35 1005.4
20260509211520 66 298 10.0 18.0 0.00 0.00 0.00 34 1005.3
20260509211010 65 329 7.0 18.0 0.00 0.00 0.00 35 1005.4
20260509210510 66 273 8.0 17.0 0.00 0.00 0.00 35 1005.5
20260509210024 67 313 6.0 17.0 0.00 0.00 0.00 34 1005.3
20260509205511 67 313 7.0 17.0 0.00 0.00 0.00 34 1005.3
20260509205011 67 303 7.0 13.0 0.00 0.00 0.00 33 1005.1
20260509204523 66 200 5.0 17.0 0.00 0.00 0.00 34 1005.1
20260509204012 66 300 5.0 20.0 0.00 0.00 0.00 35 1005.0
20260509203514 66 182 6.0 20.0 0.00 0.00 0.00 35 1005.0
20260509203025 66 307 7.0 21.0 0.00 0.00 0.00 35 1004.9
20260509202510 66 325 5.0 21.0 0.00 0.00 0.00 35 1004.9
20260509202013 67 277 10.0 20.0 0.00 0.00 0.00 36 1004.9
20260509201504 66 312 8.0 21.0 0.00 0.00 0.00 36 1004.9
20260509201002 66 274 12.0 21.0 0.00 0.00 0.00 37 1004.8
20260509200503 66 201 3.0 21.0 0.00 0.00 0.00 38 1004.7
20260509200028 66 11 8.0 23.0 0.00 0.00 0.00 38 1004.5
20260509195509 66 309 9.0 26.0 0.00 0.00 0.00 38 1004.4
20260509194959 67 346 11.0 26.0 0.00 0.00 0.00 38 1004.4
20260509194530 68 49 6.0 17.0 0.00 0.00 0.00 35 1004.1
20260509194011 68 5 8.0 21.0 0.00 0.00 0.00 34 1003.9
20260509193512 68 328 10.0 19.0 0.00 0.00 0.00 32 1003.8
20260509193006 68 9 11.0 17.0 0.00 0.00 0.00 32 1003.6
20260509192504 67 274 6.0 21.0 0.00 0.00 0.00 34 1003.6
20260509192002 67 352 10.0 26.0 0.00 0.00 0.00 33 1003.4
20260509191505 68 239 12.0 26.0 0.00 0.00 0.00 33 1003.4
20260509191006 68 291 11.0 20.0 0.00 0.00 0.00 33 1003.4
20260509190514 69 259 11.0 22.0 0.00 0.00 0.00 34 1003.3
20260509190006 69 268 9.0 22.0 0.00 0.00 0.00 33 1003.2
20260509185511 68 263 11.0 27.0 0.00 0.00 0.00 34 1003.2
20260509185002 69 248 13.0 27.0 0.00 0.00 0.00 33 1003.3
20260509184522 69 235 12.0 26.0 0.00 0.00 0.00 32 1003.2
20260509184010 69 253 13.0 24.0 0.00 0.00 0.00 33 1003.1
20260509183503 68 279 12.0 24.0 0.00 0.00 0.00 33 1002.9
20260509183010 68 258 18.0 29.0 0.00 0.00 0.00 34 1003.2
20260509182507 68 237 16.0 29.0 0.00 0.00 0.00 34 1003.1
20260509182002 69 207 13.0 26.0 0.00 0.00 0.00 34 1003.2
20260509181511 68 277 9.0 24.0 0.00 0.00 0.00 34 1003.1
20260509181006 68 242 12.0 23.0 0.00 0.00 0.00 34 1003.0
20260509180503 68 300 12.0 20.0 0.00 0.00 0.00 33 1003.0
20260509180016 67 53 6.0 19.0 0.00 0.00 0.00 33 1003.0
20260509175508 66 256 7.0 19.0 0.00 0.00 0.00 33 1003.1
20260509175003 66 202 11.0 19.0 0.00 0.00 0.00 33 1003.1
20260509174528 66 223 8.0 21.0 0.00 0.00 0.00 33 1003.0
20260509174008 66 252 12.0 22.0 0.00 0.00 0.00 32 1003.1
20260509173503 68 269 8.0 28.0 0.00 0.00 0.00 32 1003.0
20260509173014 68 225 14.0 28.0 0.00 0.00 0.00 31 1003.1
20260509172504 67 281 11.0 20.0 0.00 0.00 0.00 32 1003.1
20260509172004 66 295 10.0 18.0 0.00 0.00 0.00 32 1003.1
20260509171515 67 221 10.0 21.0 0.00 0.00 0.00 31 1003.1
20260509171002 66 269 12.0 21.0 0.00 0.00 0.00 32 1003.2
20260509170503 66 244 12.0 21.0 0.00 0.00 0.00 32 1003.1
20260509170030 65 197 8.0 18.0 0.00 0.00 0.00 32 1003.1
20260509165503 66 352 10.0 18.0 0.00 0.00 0.00 31 1003.1
20260509165003 66 243 7.0 13.0 0.00 0.00 0.00 34 1003.1
20260509164519 65 311 8.0 18.0 0.00 0.00 0.00 33 1003.2
20260509164008 64 254 6.0 18.0 0.00 0.00 0.00 34 1003.2
20260509163504 64 272 7.0 19.0 0.00 0.00 0.00 34 1003.2
20260509163031 63 250 9.0 19.0 0.00 0.00 0.00 34 1003.3
20260509162503 63 260 9.0 18.0 0.00 0.00 0.00 33 1003.2
20260509162013 64 290 8.0 21.0 0.00 0.00 0.00 33 1003.3
20260509161523 64 250 8.0 21.0 0.00 0.00 0.00 33 1003.3
20260509161002 64 239 12.0 20.0 0.00 0.00 0.00 31 1003.3
20260509160504 64 271 8.0 15.0 0.00 0.00 0.00 32 1003.4
20260509160029 64 278 4.0 14.0 0.00 0.00 0.00 32 1003.5
20260509155504 64 242 6.0 15.0 0.00 0.00 0.00 32 1003.6
20260509155003 64 261 5.0 15.0 0.00 0.00 0.00 31 1003.6
20260509154523 64 310 6.0 13.0 0.00 0.00 0.00 30 1003.5
20260509154004 65 242 7.0 16.0 0.00 0.00 0.00 31 1003.5
20260509153505 65 245 8.0 16.0 0.00 0.00 0.00 32 1003.6
20260509153034 63 252 4.0 14.0 0.00 0.00 0.00 33 1003.6
20260509152503 64 171 7.0 13.0 0.00 0.00 0.00 32 1003.6
20260509152006 63 360 7.0 10.0 0.00 0.00 0.00 33 1003.5
20260509151526 62 236 4.0 10.0 0.00 0.00 0.00 37 1003.5
20260509151002 61 273 3.0 11.0 0.00 0.00 0.00 37 1003.4
20260509150506 61 331 6.0 11.0 0.00 0.00 0.00 38 1003.5
20260509150024 62 247 2.0 11.0 0.00 0.00 0.00 40 1003.3
20260509145513 61 248 6.0 11.0 0.00 0.00 0.00 40 1003.3
20260509145007 61 324 5.0 11.0 0.00 0.00 0.00 39 1003.2
20260509144532 62 331 3.0 11.0 0.00 0.00 0.00 40 1003.1
20260509144003 61 352 7.0 11.0 0.00 0.00 0.00 39 1003.1
20260509143511 62 331 6.0 10.0 0.00 0.00 0.00 39 1003.0
20260509143026 62 221 5.0 9.0 0.00 0.00 0.00 39 1002.8
20260509142505 61 210 4.0 9.0 0.00 0.00 0.00 40 1002.7
20260509142008 61 243 6.0 11.0 0.00 0.00 0.00 39 1002.7
20260509141504 61 277 4.0 13.0 0.00 0.00 0.00 41 1002.8
20260509141005 62 251 9.0 13.0 0.00 0.00 0.00 40 1002.9
20260509140511 62 169 4.0 11.0 0.00 0.00 0.00 42 1002.8
20260509140011 62 248 4.0 11.0 0.00 0.00 0.00 41 1002.7
20260509135505 62 249 5.0 11.0 0.00 0.00 0.00 41 1002.6
20260509135009 61 258 6.0 10.0 0.00 0.00 0.00 43 1002.7
20260509134508 61 251 6.0 10.0 0.00 0.00 0.00 43 1002.6
20260509134007 62 259 6.0 10.0 0.00 0.00 0.00 42 1002.6
20260509133507 62 300 4.0 9.0 0.00 0.00 0.00 45 1002.6
20260509133026 61 249 4.0 12.0 0.00 0.00 0.00 46 1002.7
20260509132507 61 258 3.0 12.0 0.00 0.00 0.00 45 1002.6
20260509132012 61 223 4.0 9.0 0.00 0.00 0.00 48 1002.7
20260509131511 60 193 4.0 13.0 0.00 0.00 0.00 49 1002.7
20260509131006 60 209 5.0 12.0 0.00 0.00 0.00 51 1002.4
20260509130511 60 55 3.0 14.0 0.00 0.00 0.00 52 1002.4
20260509130027 59 205 4.0 14.0 0.00 0.00 0.00 55 1002.4
20260509125505 58 240 7.0 12.0 0.00 0.00 0.00 55 1002.3
20260509125014 58 246 4.0 9.0 0.00 0.00 0.00 61 1002.2
20260509124538 58 250 5.0 13.0 0.00 0.00 0.00 61 1002.2
20260509124009 57 203 7.0 13.0 0.00 0.00 0.00 63 1002.4
20260509123513 57 239 6.0 12.0 0.00 0.00 0.00 66 1002.3
20260509123018 57 173 5.0 11.0 0.00 0.00 0.00 67 1002.3
20260509122509 56 201 2.0 10.0 0.00 0.00 0.00 71 1002.2
20260509122013 56 243 4.0 8.0 0.00 0.00 0.00 72 1002.3
20260509121523 55 337 2.0 6.0 0.00 0.00 0.00 74 1002.2
20260509121006 55 200 2.0 7.0 0.00 0.00 0.00 76 1002.2
20260509120510 55 261 2.0 7.0 0.00 0.00 0.00 76 1002.3
20260509120016 55 215 2.0 7.0 0.00 0.00 0.00 77 1002.4
20260509115505 55 284 1.0 9.0 0.00 0.00 0.00 78 1002.3
20260509115014 54 193 4.0 9.0 0.00 0.00 0.00 78 1002.3
20260509114520 54 185 3.0 7.0 0.00 0.00 0.00 79 1002.2
20260509114009 54 206 2.0 7.0 0.00 0.00 0.00 79 1002.0
20260509113510 53 227 2.0 8.0 0.00 0.00 0.00 79 1002.0
20260509113019 53 257 4.0 8.0 0.00 0.00 0.00 80 1002.0
20260509112508 53 173 3.0 11.0 0.00 0.00 0.00 80 1001.9
20260509112003 53 282 3.0 11.0 0.00 0.00 0.00 80 1001.8
20260509111503 53 239 3.0 7.0 0.00 0.00 0.00 80 1001.8
20260509111004 53 223 3.0 8.0 0.00 0.00 0.00 80 1001.7
20260509110505 53 246 4.0 9.0 0.00 0.00 0.00 80 1001.7
20260509110004 53 211 3.0 9.0 0.00 0.00 0.00 80 1001.8
20260509105503 53 235 3.0 9.0 0.00 0.00 0.00 79 1001.7
20260509105003 53 250 3.0 9.0 0.00 0.00 0.00 79 1001.5
20260509104508 53 227 3.0 10.0 0.00 0.00 0.00 79 1001.5
20260509104003 53 212 3.0 10.0 0.00 0.00 0.00 79 1001.5
20260509103503 54 229 4.0 10.0 0.00 0.00 0.00 79 1001.5
20260509103004 54 240 3.0 10.0 0.00 0.00 0.00 78 1001.4
20260509102503 54 252 2.0 8.0 0.00 0.00 0.00 78 1001.4
20260509102007 54 173 3.0 10.0 0.00 0.00 0.00 78 1001.2